TimeCDT,TemperatureF,Dew PointF,Humidity,Sea Level PressureIn,VisibilityMPH,Wind Direction,Wind SpeedMPH,Gust SpeedMPH,PrecipitationIn,Events,Conditions,WindDirDegrees,DateUTC
12:01 AM,57.2,55.4,94,30.09,2.0,Calm,Calm,-,N/A,,Clear,0,2013-08-24 05:01:00
12:21 AM,57.2,55.4,94,30.10,1.5,Calm,Calm,-,N/A,,Clear,0,2013-08-24 05:21:00
12:31 AM,57.2,55.4,94,30.10,3.0,Calm,Calm,-,N/A,,Clear,0,2013-08-24 05:31:00
12:48 AM,57.2,55.4,94,30.11,3.0,Calm,Calm,-,N/A,,Partly Cloudy,0,2013-08-24 05:48:00
12:53 AM,57.0,55.9,96,30.11,3.0,Calm,Calm,-,N/A,,Clear,0,2013-08-24 05:53:00
1:13 AM,57.2,55.4,94,30.11,1.8,Calm,Calm,-,N/A,,Clear,0,2013-08-24 06:13:00
1:23 AM,55.4,55.4,100,30.11,0.2,Calm,Calm,-,N/A,Fog,Fog,0,2013-08-24 06:23:00
1:32 AM,57.2,55.4,94,30.11,0.5,Calm,Calm,-,N/A,Fog,Fog,0,2013-08-24 06:32:00
1:36 AM,55.4,55.4,100,30.11,1.0,Calm,Calm,-,N/A,,Clear,0,2013-08-24 06:36:00
1:42 AM,55.4,55.4,100,30.11,4.0,Calm,Calm,-,N/A,,Clear,0,2013-08-24 06:42:00
1:53 AM,57.0,55.9,96,30.11,6.0,Calm,Calm,-,N/A,,Clear,0,2013-08-24 06:53:00
2:25 AM,55.4,55.4,100,30.12,1.8,Calm,Calm,-,N/A,,Clear,0,2013-08-24 07:25:00
2:35 AM,55.4,53.6,94,30.12,0.8,Calm,Calm,-,N/A,,Clear,0,2013-08-24 07:35:00
2:44 AM,55.4,53.6,94,30.12,1.5,Calm,Calm,-,N/A,,Clear,0,2013-08-24 07:44:00
2:47 AM,55.4,53.6,94,30.12,3.0,Calm,Calm,-,N/A,,Clear,0,2013-08-24 07:47:00
2:53 AM,55.0,54.0,96,30.12,7.0,Calm,Calm,-,N/A,,Clear,0,2013-08-24 07:53:00
3:53 AM,55.0,54.0,96,30.12,5.0,Calm,Calm,-,N/A,,Clear,0,2013-08-24 08:53:00
4:15 AM,55.4,53.6,94,30.13,1.8,Calm,Calm,-,N/A,,Clear,0,2013-08-24 09:15:00
4:44 AM,55.4,53.6,94,30.13,0.5,Calm,Calm,-,N/A,Fog,Fog,0,2013-08-24 09:44:00
4:53 AM,57.0,55.9,96,30.13,3.0,Calm,Calm,-,N/A,,Clear,0,2013-08-24 09:53:00
5:53 AM,60.1,59.0,96,30.13,9.0,Calm,Calm,-,N/A,,Mostly Cloudy,0,2013-08-24 10:53:00
6:53 AM,64.0,60.1,87,30.14,10.0,South,4.6,-,N/A,,Overcast,170,2013-08-24 11:53:00
7:53 AM,66.9,61.0,81,30.13,10.0,South,5.8,-,N/A,,Partly Cloudy,190,2013-08-24 12:53:00
8:53 AM,71.1,61.0,70,30.12,10.0,SSW,9.2,-,N/A,,Clear,210,2013-08-24 13:53:00
9:53 AM,75.9,63.0,64,30.11,10.0,SSW,11.5,17.3,N/A,,Clear,210,2013-08-24 14:53:00
10:53 AM,77.0,63.0,62,30.11,10.0,SSW,9.2,-,N/A,,Mostly Cloudy,200,2013-08-24 15:53:00
11:53 AM,80.1,64.0,58,30.08,10.0,SSW,13.8,21.9,N/A,,Partly Cloudy,200,2013-08-24 16:53:00
12:53 PM,82.0,63.0,52,30.06,10.0,South,11.5,23.0,N/A,,Clear,190,2013-08-24 17:53:00
1:53 PM,84.0,66.0,55,30.04,10.0,SSW,13.8,21.9,N/A,,Clear,200,2013-08-24 18:53:00
2:53 PM,84.9,64.9,51,30.03,10.0,South,11.5,24.2,N/A,,Clear,190,2013-08-24 19:53:00
3:53 PM,86.0,66.9,53,30.00,10.0,SSW,13.8,25.3,N/A,,Clear,200,2013-08-24 20:53:00
4:53 PM,84.9,66.0,53,29.99,10.0,South,13.8,26.5,N/A,,Clear,190,2013-08-24 21:53:00
5:53 PM,82.0,66.0,58,29.99,10.0,South,11.5,20.7,N/A,,Clear,190,2013-08-24 22:53:00
6:53 PM,82.0,66.9,60,29.96,10.0,South,9.2,19.6,N/A,,Clear,190,2013-08-24 23:53:00
7:53 PM,81.0,66.9,62,29.94,10.0,South,10.4,19.6,N/A,,Mostly Cloudy,190,2013-08-25 00:53:00
8:53 PM,80.1,66.9,64,29.92,10.0,South,12.7,21.9,N/A,,Clear,190,2013-08-25 01:53:00
9:53 PM,80.1,68.0,67,29.90,10.0,South,15.0,27.6,N/A,,Clear,190,2013-08-25 02:53:00
10:53 PM,80.1,69.1,69,29.93,10.0,SSW,15.0,24.2,N/A,,Clear,210,2013-08-25 03:53:00
11:53 PM,79.0,69.1,72,29.94,10.0,SW,12.7,20.7,N/A,,Clear,220,2013-08-25 04:53:00